Weather History for Versailles, OH

Change the Weather History Date:

Saturday, May 3, 2014

  Actual Average (KDAY) Record (KDAY)
Temperature  
Mean Temperature 54 °F 58 °F  
Max Temperature 64 °F 68 °F 90 °F (1899)
Min Temperature 44 °F 47 °F 32 °F (2005)
Degree Days  
Heating Degree Days 11 8  
Month to date heating degree days 25  
Since 1 July heating degree days 5476  
Cooling Degree Days 0 1  
Month to date cooling degree days 3  
Year to date cooling degree days 13  
Growing Degree Days 4 (Base 50)    
Moisture  
Dew Point 38 °F    
Average Humidity 58    
Maximum Humidity 87    
Minimum Humidity 30    
Precipitation  
Precipitation 0.00 in 0.15 in 1.38 in (1958)
Month to date precipitation 0.44  
Year to date precipitation 12.82  
Snow  
Snow 0.00 in 0.00 in 0.00 in ()
Month to date snowfall 0.0  
Since 1 July snowfall 23.3  
Snow Depth -    
Sea Level Pressure  
Sea Level Pressure 29.82 in    
Wind  
Wind Speed 12 mph (WSW)    
Max Wind Speed 26 mph    
Max Gust Speed 37 mph    
Visibility 10 miles    
Events      
T = Trace of Precipitation, MM = Missing Value Source: NWS Daily Summary

Daily Weather History Graph

Daily Weather History Graph

Search for Another Location

Airport:

Trip Planner

Search our weather history database for the weather conditions in past years. The results will help you decide how hot, cold, wet, or windy it might be!

Date:

Astronomy

May. 03, 2014 Rise Set
Actual Time 6:35 AM EDT 8:35 PM EDT
Civil Twilight 6:05 AM EDT 9:05 PM EDT
Nautical Twilight 5:29 AM EDT 9:41 PM EDT
Astronomical Twilight 4:50 AM EDT 10:20 PM EDT
Moon 10:04 AM EDT (5/3) No Moon Set
Length of Visible Light 14h 59m
Length of Day
14h 00m
Waxing Crescent, 19% of the Moon is Illuminated
May 3
Waxing Crescent
May 6
First Quarter
May 14
Full
May 21
Last Quarter
May 28
New

Hourly Weather History & Observations

Time (EDT) Temp. Windchill Dew Point Humidity Pressure Visibility Wind Dir Wind Speed Gust Speed Precip Events Conditions
12:15 AM 48.2 °F - 41.0 °F 76% 29.86 in 10.0 mi WSW 9.2 mph - N/A   Unknown
12:35 AM 48.2 °F - 41.0 °F 76% 29.85 in 10.0 mi WSW 9.2 mph - N/A   Unknown
12:55 AM 48.2 °F - 41.0 °F 76% 29.85 in 10.0 mi West 11.5 mph - N/A   Unknown
1:15 AM 48.2 °F - 41.0 °F 76% 29.85 in 10.0 mi WSW 9.2 mph - N/A   Unknown
1:35 AM 48.2 °F - 41.0 °F 76% 29.85 in 10.0 mi SW 8.1 mph - N/A   Unknown
1:55 AM 48.2 °F - 41.0 °F 76% 29.84 in 10.0 mi WSW 8.1 mph - N/A   Unknown
2:15 AM 48.2 °F - 41.0 °F 76% 29.84 in 10.0 mi SW 8.1 mph - N/A   Unknown
2:35 AM 46.4 °F 42.4 °F 41.0 °F 81% 29.83 in 10.0 mi SW 8.1 mph - N/A   Unknown
2:55 AM 46.4 °F 41.5 °F 41.0 °F 81% 29.83 in 10.0 mi SW 10.4 mph - N/A   Unknown
3:15 AM 46.4 °F 42.4 °F 41.0 °F 81% 29.82 in 10.0 mi SW 8.1 mph - N/A   Unknown
3:35 AM 46.4 °F 41.5 °F 41.0 °F 81% 29.82 in 10.0 mi SW 10.4 mph - N/A   Unknown
3:55 AM 46.4 °F 41.9 °F 41.0 °F 81% 29.82 in 10.0 mi SW 9.2 mph - N/A   Unknown
4:15 AM 46.4 °F 42.4 °F 41.0 °F 81% 29.81 in 10.0 mi SW 8.1 mph - N/A   Unknown
4:35 AM 46.4 °F 42.4 °F 41.0 °F 81% 29.81 in 10.0 mi SSW 8.1 mph - N/A   Unknown
4:55 AM 46.4 °F 42.4 °F 41.0 °F 81% 29.80 in 10.0 mi SSW 8.1 mph - N/A   Unknown
5:15 AM 44.6 °F 39.2 °F 41.0 °F 87% 29.80 in 10.0 mi SSW 10.4 mph - N/A   Unknown
5:35 AM 44.6 °F 40.7 °F 41.0 °F 87% 29.80 in 10.0 mi SSW 6.9 mph - N/A   Unknown
5:55 AM 44.6 °F 40.7 °F 41.0 °F 87% 29.79 in 10.0 mi South 6.9 mph - N/A   Unknown
6:15 AM 44.6 °F 40.2 °F 41.0 °F 87% 29.78 in 10.0 mi SSW 8.1 mph - N/A   Unknown
6:35 AM 44.6 °F 39.2 °F 41.0 °F 87% 29.78 in 10.0 mi SSW 10.4 mph 16.1 mph N/A   Unknown
6:55 AM 44.6 °F 39.7 °F 41.0 °F 87% 29.78 in 10.0 mi SSW 9.2 mph - N/A   Unknown
7:15 AM 44.6 °F 39.7 °F 41.0 °F 87% 29.78 in 10.0 mi SSW 9.2 mph - N/A   Unknown
7:35 AM 46.4 °F 41.1 °F 41.0 °F 81% 29.78 in 10.0 mi SSW 11.5 mph 16.1 mph N/A   Unknown
7:55 AM 46.4 °F 40.1 °F 41.0 °F 81% 29.77 in 10.0 mi SSW 15.0 mph 19.6 mph N/A   Unknown
8:15 AM 48.2 °F - 41.0 °F 76% 29.77 in 10.0 mi SSW 13.8 mph 18.4 mph N/A   Unknown
8:35 AM 50.0 °F - 41.0 °F 71% 29.77 in 10.0 mi SSW 10.4 mph 19.6 mph N/A   Unknown
8:55 AM 50.0 °F - 42.8 °F 76% 29.77 in 10.0 mi SSW 15.0 mph - N/A   Unknown
9:15 AM 51.8 °F - 42.8 °F 71% 29.77 in 10.0 mi SW 12.7 mph - N/A   Unknown
9:35 AM 53.6 °F - 42.8 °F 67% 29.77 in 10.0 mi SW 18.4 mph 26.5 mph N/A   Unknown
9:55 AM 55.4 °F - 42.8 °F 63% 29.77 in 10.0 mi West 16.1 mph 26.5 mph N/A   Unknown
10:15 AM 55.4 °F - 42.8 °F 63% 29.77 in 10.0 mi West 20.7 mph 29.9 mph N/A   Unknown
10:35 AM 57.2 °F - 42.8 °F 59% 29.77 in 10.0 mi WSW 23.0 mph 28.8 mph N/A   Unknown
10:55 AM 59.0 °F - 42.8 °F 55% 29.77 in 10.0 mi West 18.4 mph 26.5 mph N/A   Unknown
11:15 AM 59.0 °F - 41.0 °F 51% 29.77 in 10.0 mi West 21.9 mph 29.9 mph N/A   Unknown
11:35 AM 59.0 °F - 42.8 °F 55% 29.77 in 10.0 mi West 24.2 mph 29.9 mph N/A   Unknown
11:55 AM 60.8 °F - 41.0 °F 48% 29.77 in 10.0 mi West 25.3 mph 32.2 mph N/A   Unknown
12:15 PM 60.8 °F - 41.0 °F 48% 29.78 in 10.0 mi WNW 21.9 mph 31.1 mph N/A   Unknown
12:35 PM 60.8 °F - 41.0 °F 48% 29.78 in 10.0 mi West 21.9 mph 32.2 mph N/A   Unknown
12:55 PM 60.8 °F - 39.2 °F 45% 29.78 in 10.0 mi West 21.9 mph 31.1 mph N/A   Unknown
1:15 PM 60.8 °F - 41.0 °F 48% 29.79 in 10.0 mi West 17.3 mph 31.1 mph N/A   Unknown
1:35 PM 60.8 °F - 37.4 °F 42% 29.79 in 10.0 mi WNW 18.4 mph 29.9 mph N/A   Unknown
1:55 PM 60.8 °F - 35.6 °F 39% 29.80 in 10.0 mi West 25.3 mph 34.5 mph N/A   Unknown
2:15 PM 62.6 °F - 35.6 °F 37% 29.81 in 10.0 mi West 18.4 mph 33.4 mph N/A   Unknown
2:35 PM 62.6 °F - 35.6 °F 37% 29.81 in 10.0 mi West 21.9 mph 33.4 mph N/A   Unknown
2:55 PM 64.4 °F - 35.6 °F 34% 29.81 in 10.0 mi West 26.5 mph 36.8 mph N/A   Unknown
3:15 PM 62.6 °F - 33.8 °F 34% 29.82 in 10.0 mi West 19.6 mph 31.1 mph N/A   Unknown
3:35 PM 62.6 °F - 35.6 °F 37% 29.81 in 10.0 mi West 21.9 mph 31.1 mph N/A   Unknown
3:55 PM 64.4 °F - 33.8 °F 32% 29.82 in 10.0 mi West 21.9 mph 32.2 mph N/A   Unknown
4:15 PM 64.4 °F - 33.8 °F 32% 29.82 in 10.0 mi West 16.1 mph 27.6 mph N/A   Unknown
4:35 PM 64.4 °F - 33.8 °F 32% 29.82 in 10.0 mi West 23.0 mph 31.1 mph N/A   Unknown
4:55 PM 64.4 °F - 33.8 °F 32% 29.83 in 10.0 mi West 21.9 mph 32.2 mph N/A   Unknown
5:15 PM 62.6 °F - 32.0 °F 32% 29.83 in 10.0 mi West 18.4 mph 31.1 mph N/A   Unknown
5:35 PM 64.4 °F - 32.0 °F 30% 29.83 in 10.0 mi West 23.0 mph 28.8 mph N/A   Unknown
5:55 PM 64.4 °F - 32.0 °F 30% 29.83 in 10.0 mi West 15.0 mph 29.9 mph N/A   Unknown
6:15 PM 64.4 °F - 32.0 °F 30% 29.84 in 10.0 mi West 23.0 mph 34.5 mph N/A   Unknown
6:35 PM 64.4 °F - 32.0 °F 30% 29.84 in 10.0 mi West 17.3 mph 24.2 mph N/A   Unknown
6:55 PM 64.4 °F - 32.0 °F 30% 29.85 in 10.0 mi WNW 13.8 mph 32.2 mph N/A   Unknown
7:15 PM 62.6 °F - 32.0 °F 32% 29.85 in 10.0 mi WNW 18.4 mph 28.8 mph N/A   Unknown
7:35 PM 62.6 °F - 33.8 °F 34% 29.85 in 10.0 mi West 15.0 mph - N/A   Unknown
7:55 PM 60.8 °F - 32.0 °F 34% 29.86 in 10.0 mi West 11.5 mph - N/A   Unknown
8:15 PM 60.8 °F - 33.8 °F 36% 29.87 in 10.0 mi West 9.2 mph - N/A   Unknown
8:35 PM 57.2 °F - 35.6 °F 44% 29.87 in 10.0 mi West 6.9 mph - N/A   Unknown
8:55 PM 55.4 °F - 37.4 °F 51% 29.88 in 10.0 mi West 6.9 mph - N/A   Unknown
9:15 PM 53.6 °F - 35.6 °F 51% 29.88 in 10.0 mi West 6.9 mph - N/A   Unknown
9:35 PM 53.6 °F - 35.6 °F 51% 29.88 in 10.0 mi West 5.8 mph - N/A   Unknown
9:55 PM 53.6 °F - 35.6 °F 51% 29.89 in 10.0 mi WSW 3.5 mph - N/A   Unknown
10:15 PM 53.6 °F - 35.6 °F 51% 29.89 in 10.0 mi WSW 3.5 mph - N/A   Unknown
10:35 PM 53.6 °F - 35.6 °F 51% 29.90 in 10.0 mi WSW 4.6 mph - N/A   Unknown
10:55 PM 51.8 °F - 35.6 °F 54% 29.90 in 10.0 mi SW 5.8 mph - N/A   Unknown
11:15 PM 53.6 °F - 35.6 °F 51% 29.89 in 10.0 mi SW 5.8 mph - N/A   Unknown
11:35 PM 53.6 °F - 33.8 °F 47% 29.90 in 10.0 mi WSW 6.9 mph - N/A   Unknown
11:55 PM 53.6 °F - 33.8 °F 47% 29.89 in 10.0 mi WSW 6.9 mph - N/A   Unknown